OCN23F EDDF-LEIB

Flight info

Callsign OCN23F
Flight time 1h 49m
Altitude 37000
Route ANEKI2L ANEKI Y163 HERBI Y164 MOPAN DCT LUTIX DCT BENOT DCT NEMOS DCT GEVEA/N0430F390 DCT INCUS DCT BALSI DCT RETNO DCT TUPOX DCT MTG DCT DIVKO DCT VATIR DCT PIVUS DCT SULID DCT DIMIB DCT POS
Aircraft A320/M-SDE2E3FGIJ1LORWXYZ/HB1

Departure

Time 2026-04-15 09:35
Airport Frankfurt Main Airport (EDDF)

Arrival

Time 2026-04-15 11:24
Airport Ibiza Airport (LEIB)
Time Latitude Longitude Altitude Speed Heading
2026-04-15 09:10 50.04895 8.56994 361 ft 0 kts 295°
2026-04-15 09:21 50.04891 8.57005 364 ft 3 kts 294°
2026-04-15 09:22 50.04884 8.57034 360 ft 3 kts 295°
2026-04-15 09:22 50.04875 8.57062 357 ft 3 kts 292°
2026-04-15 09:22 50.04871 8.57086 362 ft 2 kts 251°
2026-04-15 09:22 50.04871 8.57087 364 ft 1 kts 248°
2026-04-15 09:23 50.04860 8.57071 356 ft 3 kts 213°
2026-04-15 09:23 50.04841 8.57060 358 ft 3 kts 198°
2026-04-15 09:23 50.04822 8.57051 359 ft 3 kts 197°
2026-04-15 09:23 50.04803 8.57040 357 ft 3 kts 202°
2026-04-15 09:24 50.04794 8.57034 356 ft 0 kts 205°
2026-04-15 09:26 50.04788 8.57030 356 ft 4 kts 205°
2026-04-15 09:26 50.04742 8.56997 358 ft 9 kts 205°
2026-04-15 09:26 50.04686 8.56957 363 ft 8 kts 204°
2026-04-15 09:27 50.04637 8.56923 361 ft 7 kts 202°
2026-04-15 09:27 50.04592 8.56905 360 ft 6 kts 193°
2026-04-15 09:27 50.04546 8.56888 361 ft 9 kts 193°
2026-04-15 09:27 50.04477 8.56858 366 ft 10 kts 207°
2026-04-15 09:28 50.04440 8.56778 359 ft 9 kts 248°
2026-04-15 09:28 50.04413 8.56667 358 ft 12 kts 249°
2026-04-15 09:28 50.04383 8.56540 361 ft 14 kts 250°
2026-04-15 09:28 50.04350 8.56400 360 ft 14 kts 250°
2026-04-15 09:29 50.04318 8.56267 358 ft 13 kts 250°
2026-04-15 09:29 50.04285 8.56129 355 ft 14 kts 250°
2026-04-15 09:29 50.04250 8.55985 362 ft 14 kts 250°
2026-04-15 09:29 50.04218 8.55847 356 ft 13 kts 249°
2026-04-15 09:30 50.04186 8.55714 358 ft 13 kts 250°
2026-04-15 09:30 50.04154 8.55581 352 ft 15 kts 250°
2026-04-15 09:30 50.04119 8.55435 355 ft 14 kts 249°
2026-04-15 09:30 50.04089 8.55308 356 ft 11 kts 249°
2026-04-15 09:31 50.04063 8.55200 357 ft 11 kts 250°
2026-04-15 09:31 50.04026 8.55046 356 ft 19 kts 249°
2026-04-15 09:31 50.03978 8.54844 358 ft 21 kts 250°
2026-04-15 09:31 50.03922 8.54611 356 ft 24 kts 250°
2026-04-15 09:32 50.03865 8.54382 352 ft 20 kts 239°
2026-04-15 09:32 50.03794 8.54198 347 ft 20 kts 248°
2026-04-15 09:32 50.03747 8.54000 351 ft 20 kts 249°
2026-04-15 09:32 50.03697 8.53794 344 ft 21 kts 250°
2026-04-15 09:33 50.03642 8.53572 337 ft 23 kts 247°
2026-04-15 09:33 50.03584 8.53331 336 ft 25 kts 249°
2026-04-15 09:33 50.03520 8.53066 335 ft 27 kts 249°
2026-04-15 09:33 50.03453 8.52806 333 ft 26 kts 247°
2026-04-15 09:34 50.03413 8.52652 333 ft 10 kts 239°
2026-04-15 09:34 50.03359 8.52598 334 ft 9 kts 195°
2026-04-15 09:34 50.03253 8.52594 333 ft 39 kts 180°
2026-04-15 09:34 50.02712 8.52601 334 ft 112 kts 179°
2026-04-15 09:35 50.01737 8.52621 336 ft 166 kts 176°
2026-04-15 09:35 50.00564 8.52682 959 ft 168 kts 176°
2026-04-15 09:35 49.99398 8.52748 1786 ft 170 kts 175°
2026-04-15 09:35 49.98152 8.52826 2291 ft 189 kts 175°
2026-04-15 09:36 49.96758 8.52914 2625 ft 212 kts 176°
2026-04-15 09:36 49.95217 8.53011 3227 ft 226 kts 176°
2026-04-15 09:36 49.93640 8.53111 4161 ft 228 kts 175°
2026-04-15 09:36 49.92044 8.53216 5101 ft 231 kts 176°
2026-04-15 09:37 49.90432 8.53319 6047 ft 232 kts 176°
2026-04-15 09:37 49.88813 8.53424 7000 ft 234 kts 178°
2026-04-15 09:37 49.87174 8.53533 7843 ft 237 kts 177°
2026-04-15 09:37 49.85511 8.53647 8683 ft 242 kts 178°
2026-04-15 09:38 49.83809 8.53763 9510 ft 247 kts 178°
2026-04-15 09:38 49.82073 8.53882 10330 ft 252 kts 178°
2026-04-15 09:38 49.80308 8.54002 11125 ft 256 kts 178°
2026-04-15 09:38 49.78514 8.54121 11916 ft 260 kts 180°
2026-04-15 09:39 49.76695 8.53971 12463 ft 275 kts 186°
2026-04-15 09:39 49.74708 8.53707 12779 ft 299 kts 186°
2026-04-15 09:39 49.72557 8.53415 13050 ft 322 kts 186°
2026-04-15 09:39 49.70264 8.53102 13515 ft 336 kts 186°
2026-04-15 09:40 49.67910 8.52785 14217 ft 342 kts 186°
2026-04-15 09:40 49.65521 8.52472 14877 ft 347 kts 186°
2026-04-15 09:40 49.63097 8.52156 15520 ft 352 kts 185°
2026-04-15 09:40 49.60637 8.51835 16167 ft 357 kts 185°
2026-04-15 09:41 49.58146 8.51507 16824 ft 361 kts 185°
2026-04-15 09:41 49.55625 8.51173 17480 ft 366 kts 185°
2026-04-15 09:41 49.53070 8.50832 18133 ft 371 kts 185°
2026-04-15 09:41 49.50487 8.50490 18756 ft 375 kts 185°
2026-04-15 09:42 49.47878 8.50145 19310 ft 379 kts 185°
2026-04-15 09:42 49.45239 8.49798 19885 ft 382 kts 185°
2026-04-15 09:42 49.42578 8.49449 20454 ft 385 kts 185°
2026-04-15 09:42 49.39889 8.49098 21011 ft 389 kts 185°
2026-04-15 09:43 49.37180 8.48745 21567 ft 392 kts 185°
2026-04-15 09:43 49.34451 8.48390 22109 ft 396 kts 185°
2026-04-15 09:43 49.31695 8.48031 22648 ft 399 kts 185°
2026-04-15 09:43 49.28913 8.47671 23163 ft 403 kts 185°
2026-04-15 09:44 49.26074 8.47306 23690 ft 406 kts 185°
2026-04-15 09:44 49.23246 8.46945 24132 ft 409 kts 185°
2026-04-15 09:44 49.20431 8.46583 24502 ft 414 kts 185°
2026-04-15 09:44 49.17549 8.46207 24878 ft 418 kts 185°
2026-04-15 09:45 49.14637 8.45826 25266 ft 422 kts 185°
2026-04-15 09:45 49.11700 8.45444 25641 ft 426 kts 185°
2026-04-15 09:45 49.08732 8.45059 26021 ft 430 kts 185°
2026-04-15 09:45 49.05755 8.44523 26387 ft 433 kts 192°
2026-04-15 09:46 49.02809 8.43505 26757 ft 436 kts 194°
2026-04-15 09:46 48.99843 8.42457 27129 ft 439 kts 194°
2026-04-15 09:46 48.96851 8.41410 27479 ft 443 kts 194°
2026-04-15 09:46 48.93830 8.40365 27837 ft 447 kts 194°
2026-04-15 09:47 48.90783 8.39317 28203 ft 451 kts 194°
2026-04-15 09:47 48.87715 8.38260 28572 ft 454 kts 194°
2026-04-15 09:47 48.84620 8.37191 28932 ft 458 kts 194°
2026-04-15 09:47 48.81504 8.36114 29271 ft 461 kts 194°
2026-04-15 09:48 48.78364 8.35027 29624 ft 464 kts 195°
2026-04-15 09:48 48.75203 8.33907 29942 ft 468 kts 195°
2026-04-15 09:48 48.72027 8.32751 30271 ft 472 kts 195°
2026-04-15 09:48 48.68828 8.31565 30548 ft 475 kts 195°
2026-04-15 09:49 48.65606 8.30367 30830 ft 478 kts 195°
2026-04-15 09:49 48.62368 8.29171 31117 ft 480 kts 195°
2026-04-15 09:49 48.59117 8.27984 31403 ft 483 kts 195°
2026-04-15 09:49 48.55842 8.26797 31652 ft 485 kts 195°
2026-04-15 09:50 48.52549 8.25610 31953 ft 486 kts 195°
2026-04-15 09:50 48.49263 8.24432 32332 ft 486 kts 195°
2026-04-15 09:50 48.45970 8.23245 32708 ft 486 kts 195°
2026-04-15 09:50 48.42685 8.22049 33064 ft 486 kts 196°
2026-04-15 09:51 48.39403 8.20846 33447 ft 486 kts 196°
2026-04-15 09:51 48.36123 8.19640 33815 ft 486 kts 196°
2026-04-15 09:51 48.32834 8.18430 34165 ft 486 kts 196°
2026-04-15 09:51 48.29546 8.17226 34480 ft 487 kts 195°
2026-04-15 09:52 48.26264 8.16006 34808 ft 486 kts 198°
2026-04-15 09:52 48.23098 8.14294 35143 ft 481 kts 207°
2026-04-15 09:52 48.20099 8.12096 35450 ft 480 kts 210°
2026-04-15 09:52 48.17111 8.09876 35768 ft 479 kts 210°
2026-04-15 09:53 48.14123 8.07665 36057 ft 479 kts 209°
2026-04-15 09:53 48.11133 8.05461 36345 ft 478 kts 209°
2026-04-15 09:53 48.08150 8.03265 36616 ft 478 kts 209°
2026-04-15 09:53 48.05207 8.01103 36902 ft 477 kts 209°
2026-04-15 09:54 48.02224 7.98909 37153 ft 478 kts 209°
2026-04-15 09:54 47.99250 7.96721 37242 ft 475 kts 209°
2026-04-15 09:54 47.93340 7.92391 37233 ft 472 kts 208°
2026-04-15 09:55 47.87439 7.88078 37230 ft 472 kts 209°
2026-04-15 09:55 47.81542 7.83771 37233 ft 472 kts 209°
2026-04-15 09:56 47.75647 7.79476 37237 ft 472 kts 208°
2026-04-15 09:57 47.66783 7.73047 37231 ft 473 kts 208°
2026-04-15 09:57 47.60873 7.68786 37239 ft 473 kts 208°
2026-04-15 09:58 47.55954 7.65243 37236 ft 473 kts 208°
2026-04-15 09:58 47.50038 7.60984 37236 ft 473 kts 208°
2026-04-15 09:59 47.44111 7.56732 37234 ft 474 kts 208°
2026-04-15 09:59 47.38188 7.52487 37235 ft 473 kts 208°
2026-04-15 10:00 47.32254 7.48250 37209 ft 474 kts 208°
2026-04-15 10:00 47.26322 7.44034 37191 ft 473 kts 208°
2026-04-15 10:01 47.20392 7.39811 37202 ft 472 kts 211°
2026-04-15 10:01 47.15145 7.34197 37210 ft 464 kts 229°
2026-04-15 10:02 47.11049 7.26984 37209 ft 459 kts 236°
2026-04-15 10:02 47.07063 7.19642 37213 ft 460 kts 236°
2026-04-15 10:03 47.03064 7.12318 37215 ft 460 kts 236°
2026-04-15 10:03 46.99062 7.05003 37214 ft 460 kts 236°
2026-04-15 10:04 46.95059 6.97686 37202 ft 460 kts 236°
2026-04-15 10:04 46.90932 6.90509 37203 ft 464 kts 228°
2026-04-15 10:05 46.85971 6.84420 37208 ft 466 kts 223°
2026-04-15 10:05 46.80944 6.78441 37221 ft 466 kts 223°
2026-04-15 10:06 46.75913 6.72468 37218 ft 466 kts 223°
2026-04-15 10:06 46.70879 6.66490 37207 ft 467 kts 223°
2026-04-15 10:07 46.65842 6.60518 37211 ft 467 kts 223°
2026-04-15 10:07 46.60793 6.54566 37209 ft 467 kts 222°
2026-04-15 10:08 46.55739 6.48628 37215 ft 468 kts 222°
2026-04-15 10:08 46.50678 6.42693 37192 ft 467 kts 222°
2026-04-15 10:09 46.45630 6.36783 37225 ft 466 kts 222°
2026-04-15 10:09 46.40592 6.30891 37231 ft 465 kts 222°
2026-04-15 10:10 46.35550 6.25020 37222 ft 465 kts 222°
2026-04-15 10:10 46.30508 6.19155 37225 ft 465 kts 222°
2026-04-15 10:11 46.25034 6.14138 37224 ft 470 kts 205°
2026-04-15 10:11 46.18752 6.11740 37214 ft 473 kts 189°
2026-04-15 10:12 46.12202 6.10306 37207 ft 473 kts 189°
2026-04-15 10:12 46.05696 6.08861 37205 ft 473 kts 189°
2026-04-15 10:13 45.99189 6.07411 37210 ft 474 kts 189°
2026-04-15 10:13 45.92668 6.05961 37206 ft 474 kts 189°
2026-04-15 10:14 45.86132 6.04525 37208 ft 475 kts 189°
2026-04-15 10:14 45.79594 6.03083 37196 ft 476 kts 189°
2026-04-15 10:15 45.73050 6.01631 37193 ft 476 kts 189°
2026-04-15 10:15 45.66496 6.00183 37206 ft 476 kts 189°
2026-04-15 10:16 45.59946 5.98748 37203 ft 477 kts 189°
2026-04-15 10:16 45.53392 5.97313 37202 ft 477 kts 189°
2026-04-15 10:17 45.46836 5.95867 37197 ft 477 kts 190°
2026-04-15 10:17 45.40329 5.93990 37183 ft 477 kts 193°
2026-04-15 10:18 45.33873 5.91823 37170 ft 477 kts 194°
2026-04-15 10:18 45.27397 5.89689 37158 ft 478 kts 193°
2026-04-15 10:19 45.20900 5.87673 37152 ft 478 kts 193°
2026-04-15 10:19 45.14393 5.85691 37145 ft 479 kts 193°
2026-04-15 10:20 45.07881 5.83689 37142 ft 479 kts 193°
2026-04-15 10:20 45.01366 5.81676 37153 ft 480 kts 193°
2026-04-15 10:21 44.94848 5.79663 37137 ft 480 kts 193°
2026-04-15 10:21 44.88327 5.77656 37128 ft 480 kts 192°
2026-04-15 10:22 44.81799 5.75651 37115 ft 481 kts 193°
2026-04-15 10:22 44.75251 5.73652 37101 ft 482 kts 193°
2026-04-15 10:23 44.68687 5.71657 37104 ft 483 kts 193°
2026-04-15 10:23 44.62119 5.69661 37086 ft 483 kts 192°
2026-04-15 10:24 44.55590 5.67680 37100 ft 483 kts 193°
2026-04-15 10:24 44.48979 5.65675 37100 ft 483 kts 193°
2026-04-15 10:25 44.42450 5.63696 37100 ft 484 kts 193°
2026-04-15 10:25 44.35970 5.61241 37097 ft 482 kts 203°
2026-04-15 10:26 44.29731 5.57810 37100 ft 482 kts 203°
2026-04-15 10:26 44.23478 5.54396 37100 ft 483 kts 203°
2026-04-15 10:27 44.17225 5.50987 37093 ft 483 kts 203°
2026-04-15 10:27 44.10967 5.47572 37093 ft 483 kts 203°
2026-04-15 10:28 44.04707 5.44163 37100 ft 484 kts 203°
2026-04-15 10:28 43.98428 5.40772 37094 ft 484 kts 202°
2026-04-15 10:29 43.92145 5.37371 37098 ft 485 kts 203°
2026-04-15 10:29 43.85864 5.33959 37110 ft 485 kts 203°
2026-04-15 10:30 43.79569 5.30563 37101 ft 485 kts 203°
2026-04-15 10:30 43.73284 5.27198 37123 ft 484 kts 202°
2026-04-15 10:31 43.66998 5.23824 37132 ft 484 kts 203°
2026-04-15 10:31 43.60712 5.20452 37135 ft 485 kts 203°
2026-04-15 10:32 43.54413 5.17085 37131 ft 485 kts 203°
2026-04-15 10:32 43.48117 5.13731 37135 ft 485 kts 203°
2026-04-15 10:33 43.41814 5.10379 37134 ft 486 kts 203°
2026-04-15 10:33 43.35874 5.06110 37131 ft 480 kts 218°
2026-04-15 10:34 43.30376 5.00900 37132 ft 480 kts 218°
2026-04-15 10:34 43.24899 4.95741 37125 ft 481 kts 218°
2026-04-15 10:35 43.19373 4.90572 37116 ft 481 kts 218°
2026-04-15 10:35 43.13856 4.85410 37139 ft 480 kts 218°
2026-04-15 10:36 43.08340 4.80251 37146 ft 480 kts 218°
2026-04-15 10:36 43.02648 4.75429 37145 ft 483 kts 212°
2026-04-15 10:37 42.96776 4.70969 37156 ft 483 kts 212°
2026-04-15 10:37 42.90895 4.66524 37140 ft 483 kts 212°
2026-04-15 10:38 42.85016 4.62087 37162 ft 483 kts 212°
2026-04-15 10:38 42.79144 4.57658 37169 ft 482 kts 212°
2026-04-15 10:39 42.73290 4.53255 37177 ft 480 kts 212°
2026-04-15 10:39 42.67450 4.48881 37186 ft 479 kts 212°
2026-04-15 10:40 42.61621 4.44509 37189 ft 478 kts 212°
2026-04-15 10:40 42.55814 4.40157 37190 ft 477 kts 212°
2026-04-15 10:41 42.49996 4.35819 37182 ft 477 kts 212°
2026-04-15 10:41 42.44179 4.31497 37170 ft 477 kts 212°
2026-04-15 10:42 42.38354 4.27180 37163 ft 478 kts 212°
2026-04-15 10:42 42.32529 4.22860 37183 ft 478 kts 212°
2026-04-15 10:43 42.27676 4.19271 37129 ft 479 kts 212°
2026-04-15 10:43 42.21839 4.14963 37161 ft 478 kts 212°
2026-04-15 10:44 42.16017 4.10668 37177 ft 477 kts 212°
2026-04-15 10:44 42.10197 4.06389 37181 ft 477 kts 212°
2026-04-15 10:45 42.04369 4.02113 37170 ft 477 kts 212°
2026-04-15 10:45 41.98533 3.97857 37172 ft 477 kts 212°
2026-04-15 10:46 41.92702 3.93603 37169 ft 477 kts 212°
2026-04-15 10:46 41.86805 3.89471 37167 ft 479 kts 210°
2026-04-15 10:47 41.80818 3.85514 37164 ft 480 kts 210°
2026-04-15 10:47 41.74825 3.81574 37177 ft 480 kts 210°
2026-04-15 10:48 41.68852 3.77584 37175 ft 479 kts 210°
2026-04-15 10:48 41.62906 3.73587 37213 ft 478 kts 210°
2026-04-15 10:49 41.56961 3.69612 37212 ft 477 kts 210°
2026-04-15 10:49 41.51018 3.65662 37205 ft 477 kts 210°
2026-04-15 10:50 41.45076 3.61724 37191 ft 477 kts 210°
2026-04-15 10:50 41.39130 3.57790 37191 ft 477 kts 210°
2026-04-15 10:51 41.33182 3.53853 37190 ft 477 kts 210°
2026-04-15 10:51 41.27234 3.49925 37196 ft 477 kts 210°
2026-04-15 10:52 41.21281 3.46007 37194 ft 478 kts 210°
2026-04-15 10:52 41.14954 3.43202 37191 ft 484 kts 193°
2026-04-15 10:53 41.08392 3.41490 37187 ft 484 kts 193°
2026-04-15 10:53 41.01785 3.39743 37185 ft 485 kts 193°
2026-04-15 10:54 40.95166 3.37991 37183 ft 485 kts 193°
2026-04-15 10:54 40.88537 3.36253 37184 ft 486 kts 193°
2026-04-15 10:55 40.81905 3.34513 37186 ft 486 kts 193°
2026-04-15 10:55 40.75269 3.32775 37184 ft 487 kts 193°
2026-04-15 10:56 40.68622 3.31039 37186 ft 487 kts 193°
2026-04-15 10:56 40.61970 3.29303 37188 ft 487 kts 193°
2026-04-15 10:57 40.55309 3.27577 37194 ft 488 kts 193°
2026-04-15 10:57 40.45323 3.25006 37197 ft 488 kts 193°
2026-04-15 10:58 40.38658 3.23267 37194 ft 488 kts 193°
2026-04-15 10:58 40.31987 3.21538 37193 ft 489 kts 193°
2026-04-15 10:59 40.25304 3.19812 37194 ft 489 kts 193°
2026-04-15 10:59 40.18621 3.18081 37201 ft 490 kts 193°
2026-04-15 11:00 40.11923 3.16358 37198 ft 491 kts 193°
2026-04-15 11:00 40.05212 3.14640 37191 ft 492 kts 193°
2026-04-15 11:01 39.98493 3.12929 37192 ft 492 kts 193°
2026-04-15 11:01 39.91918 3.10620 37188 ft 487 kts 207°
2026-04-15 11:02 39.85971 3.06516 37190 ft 483 kts 214°
2026-04-15 11:02 39.80098 3.02235 37205 ft 485 kts 213°
2026-04-15 11:03 39.74197 2.97967 37209 ft 485 kts 213°
2026-04-15 11:03 39.68297 2.93704 37210 ft 485 kts 213°
2026-04-15 11:04 39.65344 2.91567 36843 ft 488 kts 213°
2026-04-15 11:04 39.62339 2.89389 35570 ft 502 kts 214°
2026-04-15 11:04 39.59280 2.87172 34840 ft 504 kts 214°
2026-04-15 11:04 39.56231 2.84972 34113 ft 498 kts 214°
2026-04-15 11:05 39.53223 2.82810 33054 ft 492 kts 214°
2026-04-15 11:05 39.50247 2.80676 32078 ft 485 kts 214°
2026-04-15 11:05 39.47313 2.78573 31162 ft 479 kts 214°
2026-04-15 11:05 39.44474 2.76401 30262 ft 467 kts 222°
2026-04-15 11:06 39.42139 2.73627 29295 ft 447 kts 237°
2026-04-15 11:06 39.40187 2.70541 28246 ft 441 kts 237°
2026-04-15 11:06 39.38265 2.67487 27261 ft 436 kts 237°
2026-04-15 11:06 39.36386 2.64510 26336 ft 429 kts 237°
2026-04-15 11:07 39.34512 2.61544 25449 ft 424 kts 237°
2026-04-15 11:07 39.32633 2.58575 24569 ft 418 kts 236°
2026-04-15 11:07 39.30828 2.55719 23732 ft 414 kts 236°
2026-04-15 11:07 39.29016 2.52852 22754 ft 410 kts 236°
2026-04-15 11:08 39.27202 2.49983 21861 ft 404 kts 236°
2026-04-15 11:08 39.25462 2.47230 21032 ft 399 kts 236°
2026-04-15 11:08 39.23698 2.44439 20216 ft 393 kts 236°
2026-04-15 11:08 39.22002 2.41759 19445 ft 388 kts 235°
2026-04-15 11:09 39.20279 2.39044 18682 ft 384 kts 235°
2026-04-15 11:09 39.18597 2.36401 17863 ft 379 kts 235°
2026-04-15 11:09 39.16957 2.33832 17068 ft 373 kts 234°
2026-04-15 11:09 39.15299 2.31235 16297 ft 368 kts 234°
2026-04-15 11:10 39.13709 2.28744 15557 ft 362 kts 234°
2026-04-15 11:10 39.12125 2.26259 14872 ft 356 kts 233°
2026-04-15 11:10 39.10569 2.23815 14178 ft 350 kts 233°
2026-04-15 11:10 39.09034 2.21404 13426 ft 346 kts 233°
2026-04-15 11:11 39.07518 2.19031 12665 ft 341 kts 233°
2026-04-15 11:11 39.06021 2.16693 11918 ft 336 kts 233°
2026-04-15 11:11 39.04544 2.14391 11198 ft 331 kts 233°
2026-04-15 11:11 39.03088 2.12119 10475 ft 327 kts 233°
2026-04-15 11:12 39.01655 2.09883 9871 ft 318 kts 233°
2026-04-15 11:12 39.00277 2.07736 9403 ft 305 kts 233°
2026-04-15 11:12 38.98942 2.05653 8758 ft 299 kts 233°
2026-04-15 11:12 38.97629 2.03599 8088 ft 295 kts 233°
2026-04-15 11:13 38.96335 2.01579 7437 ft 291 kts 233°
2026-04-15 11:13 38.95059 1.99592 6790 ft 286 kts 233°
2026-04-15 11:13 38.93802 1.97641 6237 ft 278 kts 233°
2026-04-15 11:13 38.92624 1.95816 6070 ft 255 kts 233°
2026-04-15 11:14 38.91516 1.94096 5663 ft 246 kts 234°
2026-04-15 11:14 38.90540 1.92353 5203 ft 235 kts 249°
2026-04-15 11:14 38.90142 1.90330 5067 ft 236 kts 271°
2026-04-15 11:14 38.90450 1.88322 4939 ft 228 kts 296°
2026-04-15 11:15 38.91401 1.86719 4816 ft 227 kts 319°
2026-04-15 11:15 38.92623 1.85426 4677 ft 228 kts 320°
2026-04-15 11:15 38.93846 1.84132 4557 ft 228 kts 320°
2026-04-15 11:15 38.95066 1.82838 4419 ft 227 kts 319°
2026-04-15 11:16 38.96282 1.81543 4294 ft 227 kts 319°
2026-04-15 11:16 38.97500 1.80241 4125 ft 228 kts 319°
2026-04-15 11:16 38.98714 1.78943 3866 ft 227 kts 319°
2026-04-15 11:16 38.99926 1.77646 3585 ft 226 kts 317°
2026-04-15 11:17 39.00919 1.76117 3299 ft 221 kts 297°
2026-04-15 11:17 39.01437 1.74280 3036 ft 217 kts 278°
2026-04-15 11:17 39.01444 1.72395 2970 ft 205 kts 260°
2026-04-15 11:17 39.01024 1.70711 2969 ft 192 kts 244°
2026-04-15 11:18 39.00418 1.69234 2974 ft 183 kts 243°
2026-04-15 11:18 38.99834 1.67803 2975 ft 179 kts 243°
2026-04-15 11:18 38.99257 1.66392 2983 ft 178 kts 243°
2026-04-15 11:18 38.98681 1.64987 2975 ft 178 kts 243°
2026-04-15 11:19 38.98106 1.63584 2980 ft 177 kts 243°
2026-04-15 11:19 38.97531 1.62183 2976 ft 177 kts 243°
2026-04-15 11:19 38.96955 1.60780 2981 ft 178 kts 243°
2026-04-15 11:19 38.96380 1.59380 2982 ft 177 kts 243°
2026-04-15 11:20 38.95807 1.57984 3011 ft 177 kts 243°
2026-04-15 11:20 38.95233 1.56589 2979 ft 177 kts 243°
2026-04-15 11:20 38.94657 1.55186 2832 ft 178 kts 243°
2026-04-15 11:20 38.94082 1.53789 2617 ft 176 kts 242°
2026-04-15 11:21 38.93509 1.52397 2391 ft 177 kts 242°
2026-04-15 11:21 38.92935 1.51003 2159 ft 176 kts 242°
2026-04-15 11:21 38.92361 1.49609 1925 ft 176 kts 241°
2026-04-15 11:21 38.91809 1.48270 1701 ft 161 kts 242°
2026-04-15 11:22 38.91302 1.47041 1489 ft 152 kts 241°
2026-04-15 11:22 38.90827 1.45888 1295 ft 137 kts 241°
2026-04-15 11:22 38.90390 1.44834 1095 ft 130 kts 240°
2026-04-15 11:22 38.89971 1.43821 904 ft 126 kts 241°
2026-04-15 11:23 38.89557 1.42828 747 ft 126 kts 240°
2026-04-15 11:23 38.89138 1.41835 607 ft 128 kts 243°
2026-04-15 11:23 38.88731 1.40827 469 ft 126 kts 242°
2026-04-15 11:23 38.88325 1.39847 279 ft 124 kts 242°
2026-04-15 11:24 38.87919 1.38847 85 ft 125 kts 241°
2026-04-15 11:24 38.87527 1.37906 12 ft 104 kts 242°
2026-04-15 11:24 38.87284 1.37320 10 ft 35 kts 245°
2026-04-15 11:24 38.87261 1.37091 10 ft 21 kts 268°
2026-04-15 11:25 38.87262 1.36994 9 ft 8 kts 273°
2026-04-15 11:25 38.87265 1.36918 9 ft 7 kts 273°
2026-04-15 11:25 38.87289 1.36871 9 ft 8 kts 332°
2026-04-15 11:25 38.87335 1.36841 9 ft 7 kts 334°
2026-04-15 11:26 38.87378 1.36813 9 ft 7 kts 334°
2026-04-15 11:26 38.87420 1.36796 9 ft 6 kts
2026-04-15 11:26 38.87448 1.36828 9 ft 5 kts 60°
2026-04-15 11:26 38.87465 1.36867 9 ft 5 kts 61°
2026-04-15 11:27 38.87485 1.36895 9 ft 4 kts 21°
2026-04-15 11:27 38.87505 1.36886 9 ft 3 kts 328°
2026-04-15 11:27 38.87522 1.36872 9 ft 3 kts 329°
2026-04-15 11:27 38.87531 1.36866 9 ft 0 kts 331°
2026-04-15 11:28 38.87532 1.36865 9 ft 0 kts 332°